Location: Derby
(52.9213°N, 1.4761°W)
Time: 18:06:39
(UTC+01:00)

Tiros 1 - Pass Details

Date: 22 May 2025
Orbit: 620 x 651 km, 48.4° (Epoch: 13 June)

Event Time Altitude Azimuth Distance (km) Brightness Sun altitude
Rises 20:59:39 0° 267° (W) 2,903 11.5 0.2°
Reaches altitude 10° 21:02:01 10° 261° (W) 2,000 10.5 0.0°
Maximum altitude 21:06:24 45° 189° (S) 860 7.7 -0.6°
Drops below altitude 10° 21:10:49 10° 117° (ESE) 2,016 9.1 -1.1°
Enters shadow 21:13:01 - 112° (ESE) 2,851 9.8 -1.4°
Sets 21:13:13 0° 112° (ESE) 2,929 - -1.4°
